[[{"header":{"parameterUnit":"m.s-1","parameterCategory":1,"la1":30.2991,"la2":30.254,"lo1":-89.0895,"lo2":-89.0444,"dy":0.0017,"dx":0.0017,"nx":28,"ny":28,"refTime":"2023-10-11T09:00:00:Z","depth":0,"parameterNumber":2,"parameterNumberName":"U-component_of_WINDS"},"data":[0,0,0,0,0,0,0,0,0,0,0,0,0,0,0,0,0,0,0,0,0,0,0,0,0,0,0,0,0,0,0,0,0,0,0,0,0,0,0,0,0,0,0,0,0,0,0,0,0,0,0,0,0,0,0,0,0,0,-1.3962,-1.3962,0,-1.4012,-1.4013,-1.4013,-1.4004,-1.4003,-1.4002,-1.4001,-1.4055,-1.4058,-1.406,0,0,0,0,0,0,0,0,0,0,0,0,0,-1.3859,-1.3861,-1.3962,-1.3962,-1.3963,-1.4012,-1.4013,-1.4014,-1.4004,-1.4003,-1.4002,-1.4001,-1.4055,-1.4057,-1.406,0,0,0,0,0,0,0,0,0,0,0,0,0,-1.3906,-1.3862,-1.3961,-1.3964,-1.3965,-1.4012,-1.4013,-1.4014,-1.4004,-1.4003,-1.4002,-1.4,-1.4054,-1.4057,-1.4061,-1.4109,0,0,-1.4071,-1.4073,0,0,0,0,0,0,0,0,-1.3903,-1.391,-1.3963,-1.3964,-1.3965,-1.4,-1.3997,-1.4046,-1.4005,-1.3989,-1.4001,-1.4,-1.4038,-1.4043,-1.4056,-1.4112,-1.4114,-1.4071,-1.4074,-1.4075,-1.4076,0,0,0,0,0,0,0,-1.39,-1.3908,-1.3982,-1.3964,-1.3965,-1.3963,-1.3969,-1.4006,-1.4021,-1.3991,-1.399,-1.3996,-1.4039,-1.4052,-1.4057,-1.4115,-1.4071,-1.4074,-1.4076,-1.4078,-1.4215,-1.4216,0,0,0,0,0,0,-1.3896,-1.3905,-1.398,-1.3983,-1.393,-1.3966,-1.3972,-1.399,-1.4021,-1.4024,-1.3997,-1.3995,-1.4047,-1.4053,-1.4059,-1.4119,-1.4075,-1.4078,-1.408,-1.4213,-1.4215,-1.4217,0,0,0,0,0,0,-1.3894,-1.3903,-1.3978,-1.3944,-1.3953,-1.397,-1.399,-1.3992,-1.4006,-1.4025,-1.4028,-1.4008,-1.4046,-1.4054,-1.4097,-1.412,-1.408,-1.4083,-1.4211,-1.4214,-1.4216,-1.4239,0,0,0,0,0,0,-1.3891,-1.3902,-1.392,-1.3944,-1.3955,-1.4015,-1.3991,-1.3994,-1.4011,-1.401,-1.4037,-1.404,-1.4046,-1.4092,-1.41,-1.4124,-1.4086,-1.4209,-1.4212,-1.4215,-1.4236,-1.4241,-1.4246,0,0,0,0,0,-1.3887,-1.3925,-1.3921,-1.393,-1.3978,-1.4016,-1.4022,-1.4028,-1.4013,-1.4032,-1.4045,-1.4039,-1.4116,-1.4096,-1.4106,-1.4131,-1.4208,-1.4212,-1.4215,-1.4234,-1.424,-1.4246,0,0,0,0,0,0,-1.3903,-1.3928,-1.3924,-1.397,-1.3991,-1.4014,-1.4038,-1.4035,-1.4061,-1.4058,-1.4064,-1.407,-1.4114,-1.4127,-1.4104,-1.4181,-1.416,-1.4166,-1.4171,-1.4178,-1.4183,-1.4179,-1.4088,0,0,0,0,0,-1.3912,-1.394,-1.396,-1.3999,-1.401,-1.4022,-1.4039,-1.4041,-1.4063,-1.4072,-1.4088,-1.411,-1.414,-1.4159,-1.4187,-1.4237,-1.4244,-1.4259,-1.4265,-1.4269,-1.4274,-1.4303,-1.431,-1.4228,-1.4228,-1.4228,0,0,-1.3931,-1.3948,-1.3965,-1.4003,-1.4019,-1.4049,-1.403,-1.4062,-1.4084,-1.4077,-1.4119,-1.4131,-1.4157,-1.4204,-1.4225,-1.4216,-1.4298,-1.4273,-1.4276,-1.428,-1.4307,-1.4315,-1.4322,-1.4231,-1.423,-1.423,0,0,-1.3981,-1.3996,-1.403,-1.4047,-1.4072,-1.408,-1.4088,-1.4112,-1.412,-1.4161,-1.4157,-1.4184,-1.4234,-1.4253,-1.4269,-1.4326,-1.4322,-1.4335,-1.4362,-1.439,-1.4397,-1.4402,-1.4424,-1.4432,-1.4339,-1.4339,-1.4339,0,-1.4001,-1.4045,-1.4049,-1.4082,-1.4099,-1.4093,-1.4129,-1.4145,-1.4178,-1.419,-1.4179,-1.4242,-1.4258,-1.431,-1.4324,-1.4337,-1.4348,-1.4332,-1.4395,-1.4401,-1.4407,-1.4427,-1.4435,-1.4341,-1.4341,-1.4341,-1.434,0,-1.407,-1.4101,-1.4126,-1.4157,-1.4177,-1.4211,-1.4221,-1.4241,-1.4241,-1.4251,-1.4294,-1.4313,-1.4346,-1.4358,-1.4359,-1.441,-1.4404,-1.4393,-1.4373,-1.4416,-1.4436,-1.4444,-1.4343,-1.4343,-1.4342,-1.4342,0,0,-1.4133,-1.4165,-1.4175,-1.4189,-1.4216,-1.424,-1.4274,-1.4305,-1.4323,-1.4345,-1.4375,-1.4418,-1.4408,-1.4427,-1.443,-1.4454,-1.4499,-1.4441,-1.4442,-1.4453,-1.4559,-1.4568,-1.4577,-1.4496,-1.4498,-1.4499,-1.4557,0,-1.4186,-1.4246,-1.425,-1.4304,-1.4333,-1.4328,-1.4358,-1.4378,-1.4388,-1.4414,-1.4425,-1.4456,-1.4441,-1.4452,-1.4475,-1.4489,-1.4521,-1.4484,-1.4526,-1.4527,-1.4521,-1.4587,-1.4596,-1.465,-1.4565,-1.4566,-1.4567,0,-1.4257,-1.4281,-1.4338,-1.4362,-1.4374,-1.4401,-1.443,-1.4455,-1.4478,-1.4483,-1.4504,-1.4503,-1.4539,-1.4517,-1.4567,-1.4542,-1.4559,-1.4568,-1.4571,-1.4576,-1.4551,-1.4596,-1.4668,-1.4677,-1.4579,-1.4578,-1.4577,0,-1.4299,-1.4346,-1.4386,-1.4399,-1.4426,-1.4445,-1.4458,-1.4479,-1.4498,-1.4524,-1.4536,-1.4565,-1.4582,-1.4605,-1.4614,-1.4596,-1.4665,-1.4642,-1.4672,-1.4672,-1.4688,-1.4687,-1.4765,-1.4696,-1.4696,-1.4695,-1.4695,0,-1.4359,-1.4395,-1.4405,-1.4431,-1.4471,-1.4475,-1.4515,-1.4526,-1.4546,-1.4574,-1.457,-1.4597,-1.4605,-1.4634,-1.464,-1.4682,-1.4689,-1.4696,-1.4697,-1.4697,-1.4696,-1.4709,-1.4707,-1.4698,-1.4697,-1.4697,-1.4696,0,-1.4413,-1.4422,-1.4466,-1.4488,-1.4494,-1.4523,-1.4543,-1.4568,-1.4576,-1.4612,-1.4621,-1.4635,-1.4668,-1.4678,-1.4718,-1.4723,-1.4772,-1.477,-1.4765,-1.4765,-1.4795,-1.4792,-1.4885,-1.4898,-1.4819,-1.482,-1.482,0,-1.4452,-1.4479,-1.4504,-1.4522,-1.4536,-1.4565,-1.4584,-1.4589,-1.4609,-1.4637,-1.4659,-1.4691,-1.4718,-1.4772,-1.4786,-1.4817,-1.4817,-1.4847,-1.4821,-1.482,-1.4819,-1.4818,-1.4822,-1.4852,-1.4853,-1.4854,-1.4854,0,-1.452,-1.4523,-1.455,-1.4578,-1.4601,-1.4624,-1.4646,-1.4661,-1.467,-1.4692,-1.4726,-1.4746,-1.4787,-1.482,-1.4851,-1.4865,-1.4862,-1.4862,-1.4871,-1.4872,-1.4868,-1.4872,-1.478,-1.486,-1.486,-1.4859,-1.4859,-1.4859,-1.4569,-1.4594,-1.4615,-1.4645,-1.4662,-1.4683,-1.4707,-1.4719,-1.4747,-1.478,-1.4781,-1.4818,-1.4841,-1.4883,-1.4899,-1.4928,-1.492,-1.4932,-1.4935,-1.4939,-1.4942,-1.4862,-1.4934,-1.4934,-1.4933,-1.4933,-1.4933,0,-1.4639,-1.4652,-1.468,-1.4711,-1.4735,-1.4728,-1.4752,-1.4773,-1.4805,-1.4826,-1.4852,-1.4891,-1.4923,-1.494,-1.4972,-1.4993,-1.4992,-1.5001,-1.5001,-1.5005,-1.4947,-1.4937,-1.5001,-1.5001,-1.5001,-1.5001,-1.5001,-1.5001,-1.4678,-1.4719,-1.4725,-1.4775,-1.4788,-1.4823,-1.4838,-1.4858,-1.4875,-1.4918,-1.4944,-1.4955,-1.4975,-1.5008,-1.5038,-1.5042,-1.5055,-1.5065,-1.5069,-1.5015,-1.5008,-1.5002,-1.4993,-1.5068,-1.5068,-1.5124,-1.5125,-1.5125]},{"header":{"parameterUnit":"m.s-1","parameterCategory":1,"la1":30.2991,"la2":30.254,"lo1":-89.0895,"lo2":-89.0444,"dy":0.0017,"dx":0.0017,"nx":28,"ny":28,"refTime":"2023-10-11T09:00:00:Z","depth":0,"parameterNumber":3,"parameterNumberName":"V-component_of_WINDS"},"data":[0,0,0,0,0,0,0,0,0,0,0,0,0,0,0,0,0,0,0,0,0,0,0,0,0,0,0,0,0,0,0,0,0,0,0,0,0,0,0,0,0,0,0,0,0,0,0,0,0,0,0,0,0,0,0,0,0,0,-2.5887,-2.5887,0,-2.5883,-2.5883,-2.5883,-2.5871,-2.587,-2.587,-2.587,-2.5864,-2.5864,-2.5864,0,0,0,0,0,0,0,0,0,0,0,0,0,-2.5884,-2.5884,-2.5887,-2.5887,-2.5887,-2.5883,-2.5883,-2.5883,-2.5871,-2.587,-2.587,-2.587,-2.5863,-2.5864,-2.5864,0,0,0,0,0,0,0,0,0,0,0,0,0,-2.5883,-2.5884,-2.5887,-2.5881,-2.588,-2.5883,-2.5883,-2.5883,-2.5871,-2.587,-2.587,-2.587,-2.5863,-2.5864,-2.5864,-2.5872,0,0,-2.5864,-2.5864,0,0,0,0,0,0,0,0,-2.5883,-2.5883,-2.5882,-2.5881,-2.588,-2.5877,-2.5879,-2.5879,-2.5871,-2.5874,-2.587,-2.5869,-2.5868,-2.5868,-2.5868,-2.5872,-2.5872,-2.5864,-2.5864,-2.5864,-2.5864,0,0,0,0,0,0,0,-2.5883,-2.5883,-2.5885,-2.5882,-2.5881,-2.5877,-2.5877,-2.5879,-2.5873,-2.5874,-2.5873,-2.5873,-2.5868,-2.5868,-2.5868,-2.5871,-2.5864,-2.5864,-2.5864,-2.5864,-2.5883,-2.5884,0,0,0,0,0,0,-2.5884,-2.5883,-2.5885,-2.5885,-2.5881,-2.5878,-2.5877,-2.5878,-2.5873,-2.5872,-2.5873,-2.5872,-2.5868,-2.5867,-2.5867,-2.5878,-2.5864,-2.5864,-2.5864,-2.5883,-2.5883,-2.5884,0,0,0,0,0,0,-2.5884,-2.5885,-2.5886,-2.5884,-2.5884,-2.5878,-2.588,-2.5878,-2.5878,-2.5873,-2.5871,-2.5874,-2.5867,-2.5867,-2.5871,-2.5877,-2.5864,-2.5864,-2.5882,-2.5883,-2.5883,-2.5898,0,0,0,0,0,0,-2.5884,-2.5885,-2.5888,-2.5884,-2.5884,-2.589,-2.588,-2.5879,-2.5879,-2.5878,-2.5873,-2.5872,-2.5867,-2.5871,-2.5871,-2.5877,-2.5864,-2.5882,-2.5882,-2.5883,-2.5897,-2.5899,-2.5901,0,0,0,0,0,-2.5884,-2.5892,-2.5888,-2.5889,-2.5888,-2.5891,-2.589,-2.5885,-2.5879,-2.5883,-2.5879,-2.5872,-2.5877,-2.5872,-2.5872,-2.5878,-2.5881,-2.5882,-2.5883,-2.5896,-2.5899,-2.5901,0,0,0,0,0,0,-2.5895,-2.5891,-2.5887,-2.5894,-2.5893,-2.5889,-2.5892,-2.5887,-2.5887,-2.5886,-2.5879,-2.5878,-2.5883,-2.5881,-2.5875,-2.5886,-2.5878,-2.5879,-2.5888,-2.589,-2.5892,-2.5893,-2.5865,0,0,0,0,0,-2.5899,-2.5902,-2.5897,-2.5903,-2.5903,-2.5898,-2.5899,-2.5895,-2.5893,-2.5892,-2.5889,-2.5887,-2.5888,-2.5889,-2.5889,-2.5896,-2.5896,-2.5901,-2.5902,-2.5904,-2.5905,-2.591,-2.5912,-2.5887,-2.5887,-2.5887,0,0,-2.5905,-2.5903,-2.5905,-2.5906,-2.5904,-2.5907,-2.5898,-2.5901,-2.5903,-2.5892,-2.5897,-2.5894,-2.5892,-2.5898,-2.59,-2.5896,-2.5912,-2.5905,-2.5907,-2.5907,-2.5911,-2.5914,-2.5916,-2.5888,-2.5887,-2.5887,0,0,-2.5919,-2.5918,-2.5924,-2.5923,-2.5921,-2.5918,-2.5919,-2.5916,-2.5914,-2.5919,-2.5911,-2.5913,-2.5915,-2.5914,-2.5913,-2.5928,-2.5922,-2.5928,-2.5938,-2.5943,-2.5945,-2.5947,-2.5953,-2.5955,-2.5929,-2.5929,-2.5929,0,-2.5928,-2.5932,-2.5927,-2.5931,-2.5931,-2.5923,-2.5929,-2.5928,-2.5926,-2.5927,-2.5922,-2.5925,-2.5922,-2.5929,-2.5932,-2.5932,-2.5934,-2.5929,-2.5945,-2.5947,-2.5949,-2.5954,-2.5956,-2.593,-2.593,-2.593,-2.593,0,-2.5943,-2.5946,-2.5951,-2.5951,-2.5952,-2.5957,-2.5952,-2.5953,-2.5949,-2.5946,-2.5951,-2.5948,-2.5948,-2.5949,-2.5945,-2.5955,-2.5953,-2.5947,-2.5938,-2.5952,-2.5957,-2.5959,-2.5931,-2.5931,-2.5931,-2.593,0,0,-2.5964,-2.5961,-2.5963,-2.5964,-2.5962,-2.5964,-2.5968,-2.597,-2.5971,-2.5971,-2.5975,-2.5977,-2.5971,-2.5971,-2.5966,-2.597,-2.5983,-2.5964,-2.5964,-2.5968,-2.5995,-2.6001,-2.6003,-2.5979,-2.598,-2.598,-2.5996,0,-2.5978,-2.5986,-2.5982,-2.5991,-2.5994,-2.5986,-2.599,-2.599,-2.5987,-2.5989,-2.5986,-2.5988,-2.5981,-2.5981,-2.5984,-2.5981,-2.5989,-2.598,-2.5983,-2.5983,-2.5985,-2.6006,-2.6011,-2.6026,-2.5998,-2.5998,-2.5998,0,-2.5995,-2.5997,-2.6006,-2.6005,-2.6006,-2.601,-2.6011,-2.6013,-2.6012,-2.601,-2.601,-2.6005,-2.6009,-2.6001,-2.6007,-2.6001,-2.6002,-2.6,-2.6001,-2.6001,-2.5992,-2.6008,-2.6031,-2.6034,-2.6001,-2.6001,-2.6001,0,-2.601,-2.6014,-2.6021,-2.6021,-2.602,-2.6023,-2.6022,-2.6021,-2.6022,-2.6023,-2.6023,-2.6024,-2.6025,-2.6026,-2.6021,-2.6015,-2.6028,-2.6019,-2.6026,-2.6027,-2.603,-2.603,-2.6054,-2.6029,-2.6029,-2.6029,-2.6029,0,-2.6027,-2.6033,-2.6028,-2.6032,-2.6039,-2.6034,-2.6041,-2.6039,-2.6038,-2.6042,-2.6035,-2.6038,-2.6031,-2.6034,-2.603,-2.6036,-2.6036,-2.6035,-2.6034,-2.6036,-2.6036,-2.6037,-2.6036,-2.603,-2.603,-2.603,-2.6029,0,-2.6045,-2.6042,-2.6049,-2.6047,-2.6047,-2.6052,-2.605,-2.6054,-2.6051,-2.6056,-2.6057,-2.6052,-2.6055,-2.6051,-2.6052,-2.605,-2.6059,-2.6055,-2.6059,-2.6059,-2.6067,-2.6067,-2.6094,-2.6097,-2.6069,-2.6069,-2.607,0,-2.6056,-2.6061,-2.6061,-2.6063,-2.6063,-2.6066,-2.6068,-2.6063,-2.6065,-2.6065,-2.6069,-2.6071,-2.6073,-2.6078,-2.6075,-2.6076,-2.6074,-2.6083,-2.6074,-2.6076,-2.6075,-2.6075,-2.6076,-2.6085,-2.6085,-2.6086,-2.6086,0,-2.6077,-2.6075,-2.6078,-2.6081,-2.6083,-2.6085,-2.6086,-2.6088,-2.6083,-2.6085,-2.6089,-2.609,-2.6093,-2.6096,-2.6097,-2.6096,-2.609,-2.6089,-2.6091,-2.6093,-2.6096,-2.6096,-2.6065,-2.6088,-2.6088,-2.6088,-2.6088,-2.6088,-2.6093,-2.6097,-2.6098,-2.6101,-2.6102,-2.6103,-2.6107,-2.6105,-2.6108,-2.6111,-2.6107,-2.6112,-2.6111,-2.6112,-2.6112,-2.6115,-2.6111,-2.6114,-2.6115,-2.6116,-2.6118,-2.6095,-2.6115,-2.6115,-2.6115,-2.6115,-2.6115,0,-2.6114,-2.6114,-2.6117,-2.612,-2.6123,-2.6118,-2.6119,-2.6122,-2.6126,-2.6126,-2.6129,-2.6133,-2.6136,-2.6133,-2.6136,-2.6139,-2.6137,-2.614,-2.614,-2.614,-2.6121,-2.6119,-2.6142,-2.6142,-2.6142,-2.6142,-2.6142,-2.6142,-2.6125,-2.6133,-2.6131,-2.6139,-2.6139,-2.6144,-2.6146,-2.6147,-2.6147,-2.6153,-2.6155,-2.6154,-2.6153,-2.6156,-2.6158,-2.6157,-2.6159,-2.6163,-2.6161,-2.6144,-2.6141,-2.6139,-2.6137,-2.6163,-2.6163,-2.6181,-2.6181,-2.6181]}]]